Weather in Krasnoyarka

Russia / Sverdlovsk Oblast     59°25′27″N   60°31′04″E
temp.,
°C
wind,
m/s
gust,
m/s
humid.,
%
clouds,
%
prec.,
mm/h
press.,
hPa
HPBL,
m
26 july, mon
mon2623:00+12w386597 0.0 1016273
02:00+11w2766100 0.0 1016190
05:00+11wsw2567100 0.0 1016128
08:00+15w3857100 0.0 1016498
11:00+19wnw4640100 0.0 10152621
14:00+18wnw464438 0.0 10141750
17:00+19wnw364574 0.0 10131944
20:00+17w376015 0.0 1012375
27 july, tue
tue2723:00+12w3788100 0.2 1012170
02:00+11sw3109485 0.1 1010239
05:00+12wsw51281100 0.1 1008646
08:00+14wnw5107296 0.1 1008892
11:00+16wnw58499 0.1 10081535
14:00+18wnw683958 0.0 10082276
17:00+15nw574799 0.0 10091985
20:00+13nw496272 0.0 10091329
28 july, wed
wed2823:00+9wnw4107490 0.1 1010768
02:00+8wsw2583100 0.0 1009151
05:00+8w2581100 0.1 1008234
08:00+7nw3895100 1.0 1008620
11:00+11nw466670 1.5 10081150
14:00+12nw3548100 0.1 10091512
17:00+14wnw4642100 0.1 10082113
20:00+12wnw4760100 0.1 10091115
29 july, thu
thu2923:00+7wnw2573100 0.1 1009148
02:00+6wsw2478100 0.0 100875
05:00+8wsw1477100 0.0 1008142
08:00+10wsw237099 0.0 1008310
11:00+11wsw127098 0.0 1008346
14:00+17wsw1450100 0.1 10061555
17:00+16ene115578 0.1 1006843
20:00+14ese117182 0.0 100540
30 july, fri
fri3023:00+11se128387 0.0 100551
02:00+8wsw1196100 0.0 100513
05:00+8w1195100 0.0 100510
08:00+14sse0075100 0.0 1005204
11:00+18s225996 0.0 1005661
14:00+18ene126318 0.0 1004239
17:00+19sse2374100 0.5 1003334
20:00+18ese1287100 0.3 100244